This demonstration page uses our WeatherBlox Daily Observations layout. Learn more.

Left ArrowRight Arrow

39.01783, -85.05884

Hourly Observations for September 4, 2017

Temp ( °F °C ) Dew Point ( °F °C ) Humidity (%) Winds ( mph kmh ) Pressure ( in mb ) Visibility ( mi km ) Precip ( " mm )
12:52 am 00:52 Mostly Clear 60 15.6 60 15.6 100 100 S 7 11 30.01 1016 7 11 0.00 0.00
1:52 am 01:52 Mostly Clear 62 16.7 62 16.7 100 100 S 7 11 30.00 1016 7 11 0.00 0.00
2:52 am 02:52 Mostly Clear with Mist and Fog 62 16.7 62 16.7 100 100 S 7 11 29.99 1016 6 10 0.00 0.00
3:52 am 03:52 Partly Cloudy 65 18.3 65 18.3 100 100 S 7 11 29.98 1015 7 11 0.00 0.00
4:52 am 04:52 Clear 65 18.3 65 18.3 100 100 SSW 9 15 29.96 1015 7 11 0.00 0.00
5:52 am 05:52 Mostly Clear with Mist and Fog 65 18.3 65 18.3 100 100 S 8 13 29.96 1015 6 10 0.00 0.00
6:52 am 06:52 Mostly Clear with Mist and Fog 65 18.3 65 18.3 100 100 SSW 8 13 29.97 1015 5 8 0.00 0.00
7:52 am 07:52 Partly Cloudy with Mist and Fog 65 18.3 65 18.3 100 100 SSW 9 15 29.97 1015 5 8 0.00 0.00
8:52 am 08:52 Sunny 69 20.6 68 20 96 96 SW 9 15 29.96 1015 8 13 0.00 0.00
9:52 am 09:52 Mostly Sunny 72 22.2 69 20.6 91 91 SW 10 17 29.96 1014 10 16 0.00 0.00
10:52 am 10:52 Mostly Sunny 76 24.4 70 21.1 82 82 SW 8 13 29.94 1014 10 16 0.00 0.00
11:52 am 11:52 Mostly Sunny 79 26.1 70 21.1 74 74 SW 13 20 29.93 1014 10 16 0.00 0.00
12:52 pm 12:52 Mostly Sunny 82 27.8 71 21.7 69 69 SW 10 17 29.91 1013 10 16 0.00 0.00
1:52 pm 13:52 Mostly Cloudy 84 28.9 71 21.7 65 65 WSW 9 15 29.89 1012 10 16 0.00 0.00
2:52 pm 14:52 Partly Cloudy 84 28.9 70 21.1 63 63 SSW 14 22 29.86 1011 10 16 0.00 0.00
3:52 pm 15:52 Mostly Cloudy 85 29.4 71 21.7 63 63 SW 13 20 29.85 1011 10 16 0.00 0.00
4:52 pm 16:52 Partly Cloudy 83 28.3 70 21.1 65 65 SW 13 20 29.83 1010 10 16 0.00 0.00
5:52 pm 17:52 Mostly Sunny 83 28.3 70 21.1 65 65 SSW 12 19 29.81 1010 10 16 0.00 0.00
6:52 pm 18:52 Mostly Sunny 81 27.2 69 20.6 67 67 SSW 14 22 29.80 1009 10 16 0.00 0.00
7:52 pm 19:52 Mostly Sunny 79 26.1 70 21.1 74 74 SSW 9 15 29.78 1009 10 16 0.00 0.00
8:52 pm 20:52 Mostly Clear 78 25.6 69 20.6 74 74 SSW 13 20 29.81 1010 10 16 0.00 0.00
9:52 pm 21:52 Partly Cloudy 77 25 69 20.6 77 77 SSW 10 17 29.80 1009 10 16 0.00 0.00
10:52 pm 22:52 Mostly Cloudy 76 24.4 68 20 77 77 S 14 22 29.78 1008 10 16 0.00 0.00
11:52 pm 23:52 Cloudy 75 23.9 68 20 79 79 SSW 13 20 29.79 1009 10 16 0.00 0.00

Powered by AerisWeather